Stations météo

réclame
Mon MeteoGroup
D15-FA-1, Pays-Bas (6201): Température de l'air & dewpoint: 19.02.2018 10:00:00 - 25.02.2018 10:00:00 (CET)D15-FA-1, Pays-Bas (6201): Vitesse du vent & gusts: 19.02.2018 10:00:00 - 25.02.2018 10:00:00 (CET)D15-FA-1, Pays-Bas (6201): Direction du vent: 19.02.2018 10:00:00 - 25.02.2018 10:00:00 (CET)D15-FA-1, Pays-Bas (6201): reduced air pressure: 19.02.2018 10:00:00 - 25.02.2018 10:00:00 (CET)D15-FA-1, Pays-Bas (6201): visibility: 19.02.2018 10:00:00 - 25.02.2018 10:00:00 (CET)
Date & Time tt [°C] td [°C] ff [km/h] ff [knt] fx [km/h] fx [knt] dd ppp [hPa] vv [km]
25.02.2018 10:00:00 0,7 -6,0 41 22 47 25 ESE 1034,2 10
25.02.2018 09:00:00 0,7 -5,7 41 22 50 27 ESE 1033,8 10
25.02.2018 08:00:00 0,8 -5,9 39 21 43 23 E 1033,5 10
25.02.2018 07:00:00 1,1 -5,4 44 24 47 25 ESE 1033,0 10
25.02.2018 06:00:00 1,1 -5,7 46 25 54 29 ESE 1032,7 10
25.02.2018 05:00:00 1,1 -5,7 42 23 47 25 ESE 1032,6 10
25.02.2018 04:00:00 1,4 -5,2 36 19 47 25 ESE 1032,5 41
25.02.2018 03:00:00 1,6 -5,0 44 24 50 27 ESE 1032,5 10
25.02.2018 02:00:00 1,9 -4,3 50 27 50 27 ESE 1032,3 10
25.02.2018 01:00:00 2,1 -4,4 52 28 54 29 ESE 1032,3 10
25.02.2018 00:00:00 2,2 -4,5 55 30 58 31 ESE 1031,9 10
24.02.2018 23:00:00 2,3 -3,7 54 29 58 31 ESE 1031,4 10
24.02.2018 22:00:00 2,4 -3,5 52 28 58 31 ESE 1031,4 10
24.02.2018 21:00:00 2,5 -3,1 55 30 58 31 E 1031,2 10
24.02.2018 20:00:00 2,8 -2,2 54 29 58 31 E 1031,0 10
24.02.2018 19:00:00 2,8 -1,7 50 27 58 31 E 1030,6 10
24.02.2018 18:00:00 2,5 -2,1 47 25 58 31 E 1030,4 31
24.02.2018 17:00:00 2,4 -1,4 54 29 58 31 E 1030,3 10
24.02.2018 16:00:00 1,9 -2,0 52 28 54 29 ESE 1029,9 10
24.02.2018 15:00:00 2,0 -1,6 52 28 54 29 ESE 1030,0 10
24.02.2018 14:00:00 1,9 -1,8 54 29 58 31 ESE 1030,3 10
24.02.2018 13:00:00 1,9 -1,5 57 31 58 31 ESE 1030,2 10
24.02.2018 12:00:00 1,8 -2,4 59 32 61 33 ESE 1030,1 10
24.02.2018 11:00:00 2,2 -3,5 55 30 61 33 SE 1029,7 10
24.02.2018 10:00:00 2,7 -3,3 59 32 58 31 ESE 1029,2 10
24.02.2018 09:00:00 2,8 -3,1 48 26 54 29 ESE 1028,6 10
24.02.2018 08:00:00 2,8 -3,9 55 30 58 31 ESE 1027,9 10
24.02.2018 07:00:00 2,7 -4,8 57 31 58 31 ESE 1027,3 10
24.02.2018 06:00:00 2,8 -5,0 57 31 58 31 ESE 1026,8 10
24.02.2018 05:00:00 2,6 -4,2 52 28 54 29 ESE 1026,3 10
24.02.2018 04:00:00 2,6 -4,1 55 30 54 29 ESE 1026,2 10
24.02.2018 03:00:00 2,7 -3,4 57 31 58 31 ESE 1026,1 10
24.02.2018 02:00:00 2,7 -2,4 59 32 58 31 ESE 1025,9 10
24.02.2018 01:00:00 2,9 -2,1 55 30 58 31 ESE 1025,8 10
24.02.2018 00:00:00 3,0 -1,5 57 31 58 31 ESE 1025,7 10
23.02.2018 23:00:00 2,8 -1,9 54 29 54 29 ESE 1025,5 10
23.02.2018 22:00:00 2,5 -1,9 55 30 58 31 ESE 1025,5 10
23.02.2018 21:00:00 2,7 -1,9 52 28 50 27 E 1025,4 10
23.02.2018 20:00:00 2,5 -2,2 40 21 47 25 E 1025,4 34
23.02.2018 19:00:00 2,5 -2,8 41 22 43 23 E 1025,4 10
23.02.2018 18:00:00 2,6 -2,6 37 20 40 21 ESE 1025,3 10
23.02.2018 17:00:00 2,5 -3,3 37 20 40 21 E 1025,5 10
23.02.2018 16:00:00 2,7 -3,3 29 16 40 21 E 1025,7 45
23.02.2018 15:00:00 3,0 -3,1 31 17 40 21 ESE 1025,7 10
23.02.2018 14:00:00 3,0 -2,6 25 14 36 19 ESE 1026,0 43
23.02.2018 13:00:00 3,2 -2,5 35 19 36 19 ESE 1026,5 10
23.02.2018 12:00:00 3,3 -2,6 34 18 36 19 ESE 1026,5 10
23.02.2018 11:00:00 3,4 -2,0 29 16 32 18 ESE 1026,9 10
23.02.2018 10:00:00 3,3 -1,0 35 19 36 19 ESE 1026,8 10
23.02.2018 09:00:00 3,7 -0,6 29 16 36 19 SE 1026,5 18
23.02.2018 08:00:00 4,1 -1,2 21 11 22 12 ESE 1026,2 10
23.02.2018 07:00:00 3,1 1,0 9 5 22 12 E 1026,0 10
23.02.2018 06:00:00 2,7 0,7 24 13 25 14 ESE 1025,9 10
23.02.2018 05:00:00 4,0 0,8 18 10 25 14 ESE 1025,6 10
23.02.2018 04:00:00 4,1 1,0 16 9 18 10 E 1025,7 10
23.02.2018 03:00:00 4,1 0,7 13 7 14 8 E 1026,1 10
23.02.2018 02:00:00 4,0 -0,2 11 6 14 8 E 1026,3 10
23.02.2018 01:00:00 3,9 -1,0 13 7 18 10 ESE 1026,5 10
23.02.2018 00:00:00 3,8 -0,7 16 9 22 12 ESE 1026,7 10
22.02.2018 23:00:00 3,7 -0,7 15 8 18 10 E 1026,9 10
22.02.2018 22:00:00 3,7 -0,4 11 6 11 6 ENE 1027,0 10
22.02.2018 21:00:00 3,7 -1,0 9 5 11 6 ENE 1027,0 10
22.02.2018 20:00:00 3,6 -1,2 7 4 7 4 E 1026,9 38
22.02.2018 19:00:00 3,6 -1,3 8 4 7 4 ENE 1026,9 10
22.02.2018 18:00:00 3,7 -1,3 5 3 7 4 ESE 1026,9 10
22.02.2018 17:00:00 3,7 -1,2 5 3 7 4 ESE 1026,9 10
22.02.2018 16:00:00 3,8 -1,1 4 2 7 4 ESE 1027,0 32
22.02.2018 15:00:00 3,8 -1,3 9 5 11 6 SSE 1027,2 10
22.02.2018 14:00:00 3,7 -1,5 9 5 11 6 SE 1027,8 10
22.02.2018 13:00:00 3,8 -1,2 11 6 11 6 SE 1028,1 10
22.02.2018 12:00:00 3,7 -1,5 9 5 14 8 SE 1028,3 10
22.02.2018 11:00:00 3,9 -1,6 13 7 14 8 SE 1028,2 10
22.02.2018 10:00:00 3,8 -1,5 13 7 14 8 SE 1028,1 10
22.02.2018 09:00:00 3,7 -1,6 13 7 14 8 ESE 1028,1 10
22.02.2018 08:00:00 3,4 -1,3 15 8 14 8 ESE 1027,8 10
22.02.2018 07:00:00 3,4 -1,3 11 6 14 8 SE 1027,8 10
22.02.2018 06:00:00 3,5 -1,4 15 8 18 10 ESE 1027,8 10
22.02.2018 05:00:00 3,4 -1,3 11 6 14 8 ESE 1027,8 10
22.02.2018 04:00:00 3,4 -0,8 7 4 11 6 ESE 1027,7 20
22.02.2018 03:00:00 3,5 -0,7 9 5 14 8 SE 1027,8 10
22.02.2018 02:00:00 3,6 -0,6 11 6 14 8 E 1028,1 10
22.02.2018 01:00:00 3,7 -0,8 15 8 14 8 E 1028,3 10
22.02.2018 00:00:00 3,8 -0,7 11 6 14 8 E 1028,5 10
21.02.2018 23:00:00 4,0 0,0 11 6 14 8 E 1028,6 10
21.02.2018 22:00:00 4,0 0,0 15 8 14 8 ESE 1028,4 10
21.02.2018 21:00:00 4,2 0,2 15 8 18 10 ESE 1028,2 10
21.02.2018 20:00:00 4,3 -0,1 15 8 18 10 ESE 1027,9 10
21.02.2018 19:00:00 4,3 0,4 16 9 18 10 E 1027,6 10
21.02.2018 18:00:00 4,4 0,7 16 9 18 10 ESE 1027,2 10
21.02.2018 17:00:00 4,5 1,4 11 6 14 8 E 1027,1 10
21.02.2018 16:00:00 4,6 2,1 11 6 14 8 ESE 1027,0 10
21.02.2018 15:00:00 4,7 2,2 11 6 11 6 ESE 1027,2 10
21.02.2018 14:00:00 4,8 2,4 5 3 7 4 E 1027,5 10
21.02.2018 13:00:00 4,8 2,7 8 4 11 6 E 1027,8 10
21.02.2018 12:00:00 5,2 3,3 7 4 22 12 NNE 1027,6 30
21.02.2018 11:00:00 5,1 3,1 26 14 25 14 N 1027,6 10
21.02.2018 10:00:00 4,9 2,4 22 12 22 12 N 1027,4 10
21.02.2018 09:00:00 4,9 2,7 16 9 18 10 NNE 1027,1 10
21.02.2018 08:00:00 4,9 1,7 15 8 18 10 N 1026,8 10
21.02.2018 07:00:00 4,4 2,4 11 6 14 8 W 1026,7 10
21.02.2018 06:00:00 4,2 1,9 11 6 14 8 - 1026,8 10
21.02.2018 05:00:00 4,0 1,9 13 7 14 8 W 1027,1 10
21.02.2018 04:00:00 4,1 0,8 9 5 18 10 WNW 1027,2 10
21.02.2018 03:00:00 4,7 2,4 18 10 18 10 WNW 1027,4 8
21.02.2018 02:00:00 4,8 2,3 11 6 14 8 WNW 1027,2 10
21.02.2018 01:00:00 4,7 2,5 8 4 11 6 NW 1027,1 10
21.02.2018 00:00:00 4,6 2,3 5 3 11 6 N 1026,5 10
20.02.2018 23:00:00 4,5 2,2 8 4 11 6 N 1026,6 9
20.02.2018 22:00:00 4,5 2,1 9 5 11 6 NE 1026,0 9
20.02.2018 21:00:00 4,4 1,9 9 5 14 8 NNE 1025,8 9
20.02.2018 20:00:00 4,2 1,5 13 7 14 8 - 1025,0 8
20.02.2018 19:00:00 4,0 1,4 11 6 14 8 NE 1024,3 10
20.02.2018 18:00:00 3,9 1,4 5 3 11 6 NNE 1023,8 8
20.02.2018 17:00:00 3,7 1,1 11 6 18 10 ESE 1022,6 9
20.02.2018 16:00:00 3,6 1,1 14 8 29 16 SE 1021,7 15
20.02.2018 15:00:00 3,3 1,3 21 11 25 14 SE 1021,0 10
20.02.2018 14:00:00 3,2 1,3 26 14 25 14 SE 1020,8 6
20.02.2018 13:00:00 3,6 0,9 24 13 29 16 SSE 1020,2 10
20.02.2018 12:00:00 4,1 1,3 24 13 25 14 SSE 1019,8 10
20.02.2018 11:00:00 4,4 1,7 26 14 29 16 S 1019,3 10
20.02.2018 10:00:00 4,8 1,2 22 12 29 16 SSE 1019,2 15
20.02.2018 09:00:00 5,1 2,3 24 13 22 12 SSE 1018,6 10
20.02.2018 08:00:00 5,0 3,2 24 13 25 14 S 1018,5 7
20.02.2018 07:00:00 5,0 3,3 24 13 25 14 SSE 1018,5 5
20.02.2018 06:00:00 5,0 3,6 22 12 22 12 SSE 1018,5 5
20.02.2018 05:00:00 4,8 3,7 18 10 18 10 ESE 1018,5 2,7
20.02.2018 04:00:00 4,8 3,7 16 9 18 10 ESE 1018,9 3,0
20.02.2018 03:00:00 4,7 3,5 15 8 18 10 ESE 1018,9 4,0
20.02.2018 02:00:00 4,9 3,4 16 9 18 10 ESE 1019,0 5
20.02.2018 01:00:00 4,9 3,1 22 12 22 12 ESE 1018,8 7
20.02.2018 00:00:00 4,8 3,3 18 10 22 12 SE 1018,5 7
19.02.2018 23:00:00 4,9 3,5 16 9 22 12 SE 1018,4 7
19.02.2018 22:00:00 4,9 3,9 18 10 22 12 SSE 1018,0 6
19.02.2018 21:00:00 5,1 4,1 16 9 22 12 SE 1018,1 5
19.02.2018 20:00:00 5,3 4,7 26 14 25 14 SE 1017,8 3,3
19.02.2018 19:00:00 5,3 5,1 22 12 22 12 SSE 1017,6 2,9
19.02.2018 18:00:00 5,5 5,3 22 12 22 12 SSE 1017,2 2,1
19.02.2018 17:00:00 5,7 5,4 14 8 22 12 SSE 1016,9 0,8
19.02.2018 16:00:00 5,7 5,3 18 10 22 12 SSE 1016,7 4,2
19.02.2018 15:00:00 5,7 5,2 18 10 18 10 S 1016,5 5
19.02.2018 14:00:00 5,9 5,1 14 8 18 10 SSE 1016,6 10
19.02.2018 13:00:00 5,7 5,1 21 11 22 12 S 1016,8 7
19.02.2018 12:00:00 5,6 4,9 18 10 22 12 SSE 1016,7 10
19.02.2018 11:00:00 5,6 4,9 18 10 18 10 SSE 1016,6 10
19.02.2018 10:00:00 5,5 4,8 16 9 18 10 S 1016,7 7

tt = Température de l'air
td = dewpoint
ff = Vitesse du vent
fx = gusts
dd = Direction du vent
ppp = reduced air pressure
vv = visibility

stations d'obs. à proximité